Temp_Advection
nan nan nan nan nan nan nan nan nan nan nan nan nan nan nan nan nan nan nan nan nan nan nan nan nan nan nan nan nan nan nan nan nan nan nan nan nan nan nan nan nan nan nan
nan -0 -0 -0 -0 -0 -0 0 0 0 -0 0 0 0 -0 -0 0 -0 -0 0 0 0 0 0 0 -0 -1 -1 -1 -1 -1 -1 -1 1 0 -1 -0 -0 1 1 -0 -0 nan
nan -0 -0 -0 -0 0 0 0 0 -0 0 0 0 0 -0 0 0 0 0 0 0 0 0 1 1 -0 -1 -1 -1 -1 -1 -1 -1 -0 0 1 -0 1 0 1 1 -0 nan
nan -0 -0 -0 0 0 0 0 -0 -0 0 0 0 0 0 0 0 -0 0 0 1 1 1 2 3 1 -0 -1 -0 -0 -0 -0 0 0 -0 1 0 0 0 1 1 1 nan
nan -0 -0 0 0 0 -0 -0 -0 -0 0 0 0 0 1 2 1 -0 -0 1 2 1 1 3 4 3 1 -0 -1 0 0 0 1 1 0 0 1 -0 0 0 1 0 nan
nan -0 0 0 0 -0 -1 0 -0 -0 0 0 0 0 1 1 0 -1 0 1 2 1 2 4 4 1 1 0 -0 0 0 -0 -1 -0 -0 -0 1 0 0 0 0 1 nan
nan 0 0 0 0 -1 0 0 -0 -0 0 0 0 1 1 1 1 -1 -1 1 2 1 2 3 3 3 3 1 0 1 1 1 0 -1 -1 -0 -1 0 0 0 0 -0 nan
nan 0 0 0 0 -0 1 -0 -0 0 0 0 0 1 1 2 1 -1 -1 1 2 2 2 3 5 4 2 1 1 1 0 1 2 1 0 0 0 0 0 -0 -0 -1 nan
nan 0 0 0 -0 0 0 -0 -0 0 0 0 0 0 1 1 1 0 -1 1 2 2 2 3 4 3 2 2 1 1 -0 -0 1 1 1 1 1 0 1 1 -0 -0 nan
nan 0 0 0 0 0 -1 -0 -0 0 0 0 0 1 1 2 2 0 -0 1 1 0 2 2 1 3 3 2 1 1 -0 -0 1 0 -0 0 0 -0 0 1 0 -1 nan
nan -0 0 0 -0 -1 -0 -1 -0 0 0 0 0 1 1 2 1 1 -0 -0 1 1 -0 0 3 4 2 1 1 1 1 1 2 1 0 -0 0 0 0 0 1 -0 nan
nan -0 0 -0 -0 -0 -0 -1 0 0 0 0 1 2 1 1 1 1 0 -0 1 1 -1 1 4 3 0 1 0 -0 0 1 2 3 3 2 1 2 1 1 0 1 nan
nan -0 -0 -0 -0 -0 -0 -0 -0 -0 0 1 1 1 1 1 0 1 0 -1 1 1 1 1 2 2 1 1 0 -0 -1 -0 1 1 1 3 3 3 2 2 1 1 nan
nan -0 -0 -0 -0 -0 -0 0 -0 -0 -0 1 1 -0 1 1 1 0 0 0 -0 0 1 1 1 1 0 1 1 1 0 -1 -2 -1 -0 -0 1 3 3 2 2 2 nan
nan -0 -0 -0 -0 -0 0 -0 -0 -0 -0 -0 -1 -0 -0 -0 1 1 1 0 1 1 1 0 -1 -1 -1 -0 -1 -0 0 2 2 1 1 1 1 0 1 2 2 2 nan
nan -0 -0 -0 -0 -0 -0 -0 -0 -0 -0 -0 -0 -0 -1 1 2 1 1 1 1 1 -1 -2 -1 -0 0 -1 -1 0 1 1 0 1 2 2 1 0 -0 0 2 2 nan
nan -0 -0 -0 -0 -0 -0 -0 0 -0 -0 0 0 0 0 0 1 1 0 1 1 -1 -2 -2 -1 -0 0 0 1 0 -1 -0 1 1 0 0 1 2 2 1 0 -0 nan
nan -0 -0 -0 -0 -0 -0 -0 -0 -0 0 0 0 0 -0 0 1 1 0 0 -0 -1 -2 -1 -1 -0 0 1 1 0 0 0 0 0 -0 -0 0 0 0 1 1 1 nan
nan -0 -0 -0 -0 -0 -0 -0 -0 -0 -0 -0 -0 0 0 0 1 1 0 -1 -1 -1 -0 -0 -0 -0 -0 0 0 0 0 0 1 0 -0 0 0 -0 -0 -0 -1 -0 nan
nan -0 -0 -0 -0 -0 -0 -0 -0 -0 -0 -0 -0 0 -0 0 0 -0 -0 -0 -0 -0 -0 -0 0 0 -0 -0 0 0 0 -0 -0 0 1 0 -0 0 -0 0 0 0 nan
nan -0 -0 -0 -0 -0 -0 -0 -0 -0 -0 -0 -0 -0 0 0 -0 -0 -0 -0 -0 -0 -0 0 0 -0 -1 -0 0 0 0 -0 -0 -0 -0 0 0 -0 0 0 0 -0 nan
nan -0 -0 -0 -0 -0 -0 -0 -0 -0 -0 -0 -0 -0 -0 -0 -0 -0 -0 -0 -0 -0 -0 -0 -0 -0 0 0 -0 -0 -0 -0 -0 0 0 -0 -0 -0 -0 -0 -0 -0 nan
nan -0 -0 -0 -0 -0 -0 -0 -0 -0 -0 -0 -0 -0 -0 -0 -0 -0 -0 -0 -0 -0 -0 -0 -0 -0 -0 -0 -0 -0 0 -0 -0 -0 -0 -0 -0 0 0 0 0 0 nan
nan -0 -0 -0 -0 -0 -0 -0 -0 -0 -0 -0 -0 -0 -0 -0 -0 -0 -0 0 -0 -0 -0 -0 -0 0 0 0 -0 -0 -0 -0 0 0 0 -0 -0 -0 -0 -0 -0 -0 nan
nan -0 -0 -0 -0 -0 -0 -0 -0 -0 -0 -0 -0 -0 -0 -0 -0 -0 -0 -0 -0 -0 -0 0 0 0 0 0 0 0 0 0 0 0 0 0 -0 -0 0 0 0 0 nan
nan nan nan nan nan nan nan nan nan nan nan nan nan nan nan nan nan nan nan nan nan nan nan nan nan nan nan nan nan nan nan nan nan nan nan nan nan nan nan nan nan nan nan
Wind_Speed
9 11 13 15 16 17 19 21 22 22 23 24 25 24 26 32 30 28 23 19 19 18 14 16 10 9 14 18 20 22 26 23 8 21 20 33 37 38 48 68 74 62 57
10 12 15 16 16 18 20 22 23 23 23 24 25 25 29 33 34 26 22 22 25 20 18 24 11 7 13 17 20 24 21 18 12 23 42 33 43 57 51 65 62 51 53
10 12 14 16 17 19 21 22 24 25 24 25 26 27 32 34 34 27 25 24 27 20 23 29 19 13 18 21 22 18 17 16 24 23 31 51 48 58 50 46 66 59 53
10 12 14 16 18 20 21 24 25 24 25 26 27 29 32 34 33 29 28 31 28 24 29 33 30 19 20 19 20 20 20 20 28 42 39 43 46 53 49 60 55 56 52
9 11 14 16 18 20 22 23 24 25 25 26 28 31 33 37 34 30 33 35 33 29 33 36 35 26 19 19 24 27 23 40 46 46 49 48 49 41 42 47 51 54 48
9 12 14 16 18 21 22 22 24 25 26 29 30 32 36 41 33 34 35 39 38 33 36 38 32 25 27 22 19 30 32 43 46 49 47 50 50 44 38 50 50 51 46
10 12 14 16 19 21 21 24 25 25 26 30 32 33 35 44 35 36 41 41 40 39 36 38 40 39 32 28 25 29 32 36 39 42 49 48 48 37 47 50 50 43 42
10 12 14 16 19 20 22 24 24 25 26 28 31 37 39 46 38 42 43 42 42 42 39 39 42 41 41 34 31 32 38 38 37 39 39 45 38 29 36 48 52 46 48
10 12 15 17 19 22 24 24 23 24 26 28 29 36 40 46 43 44 46 46 46 44 42 39 41 40 35 37 33 35 34 34 34 33 29 31 35 37 31 38 45 49 48
10 13 16 18 20 23 24 24 22 23 24 26 30 33 42 42 46 43 49 50 51 48 47 44 40 38 35 32 32 33 29 26 28 31 26 27 34 34 31 33 40 50 52
12 13 16 18 21 22 23 23 22 23 25 27 30 33 36 42 45 47 45 49 50 52 51 53 48 41 38 35 35 35 32 25 25 25 25 25 36 39 43 44 45 50 51
12 14 16 18 20 20 22 23 24 24 28 30 32 36 38 37 41 45 46 44 46 49 51 52 54 53 50 47 42 34 31 29 28 31 34 31 26 38 41 41 43 50 48
12 14 16 18 20 22 22 23 24 26 28 30 33 38 42 41 39 41 44 45 46 46 47 47 49 52 52 56 56 51 43 43 44 40 40 40 36 36 40 42 47 48 44
12 13 15 16 18 20 22 25 27 28 28 31 35 38 41 45 45 43 43 44 46 47 45 46 47 50 51 52 53 52 53 53 50 48 45 38 33 35 40 40 37 45 40
12 13 13 14 17 19 22 24 27 29 31 32 32 36 39 41 43 42 45 47 47 47 47 50 53 50 50 49 51 51 51 52 56 53 48 47 46 36 30 32 30 32 40
12 12 12 12 14 16 18 21 23 25 26 28 30 34 34 33 36 37 40 44 48 50 54 56 55 54 53 50 49 47 48 49 48 49 50 49 49 47 47 43 40 38 32
11 11 12 12 12 13 14 16 19 21 23 24 27 29 31 31 30 33 37 40 43 47 53 53 54 53 51 50 50 49 48 44 41 44 45 45 45 44 44 43 41 40 38
12 12 11 11 11 12 12 14 15 17 19 21 23 24 26 26 26 28 31 34 41 45 46 46 47 48 48 49 49 48 47 46 46 45 44 41 39 39 39 39 36 35 34
12 12 11 10 10 10 11 12 13 14 15 17 19 20 21 23 23 25 26 34 36 38 38 39 40 41 42 42 43 44 44 44 43 43 43 43 42 41 41 39 35 32 30
13 12 10 9 9 9 9 10 10 11 12 14 14 16 18 18 20 22 24 27 29 30 30 31 33 34 34 34 34 36 37 39 39 39 38 39 39 38 39 38 35 35 34
14 13 11 10 8 8 8 8 8 9 9 10 11 12 13 14 16 17 19 20 21 22 23 24 25 25 26 26 28 29 30 31 31 32 32 32 32 33 31 31 30 30 29
15 13 12 11 9 8 7 6 6 6 6 7 7 8 9 10 11 12 13 14 15 16 16 17 17 17 18 19 20 20 21 22 23 23 24 24 24 24 23 23 23 23 21
16 15 14 12 11 9 8 6 6 5 5 4 4 5 5 6 7 8 9 9 10 10 11 11 11 11 11 11 12 13 13 13 14 15 15 15 15 15 15 14 14 12 11
17 16 15 14 13 11 9 8 7 6 5 5 4 3 3 2 3 4 4 5 6 6 6 6 6 6 6 7 7 7 6 7 7 7 7 7 6 6 6 5 5 4 3
20 19 17 16 15 13 11 10 9 7 6 5 5 4 4 3 2 2 1 1 1 1 1 2 2 2 3 3 3 3 4 4 4 4 3 2 2 1 2 3 3 4 5
22 21 20 19 17 16 14 13 11 9 8 7 7 6 6 5 5 4 4 4 3 3 2 2 3 3 4 4 5 5 6 6 7 8 8 8 9 9 9 9 9 10 11
Wind_Direction
16 12 8 4 0 356 355 353 352 350 348 347 345 345 343 342 350 348 343 352 358 354 356 359 360 230 214 206 202 202 203 204 214 155 163 167 156 150 155 165 171 171 171
20 16 12 7 3 0 360 1 1 357 355 352 353 352 349 352 354 353 359 10 8 3 26 29 43 177 176 172 172 177 184 187 166 156 148 155 152 152 148 160 163 169 171
24 20 14 10 7 6 6 7 7 5 1 1 0 359 358 357 359 8 17 21 20 31 34 43 62 140 145 148 153 165 167 162 150 154 144 130 154 153 148 149 164 172 170
28 22 18 15 14 13 13 15 12 10 7 6 5 3 4 360 11 27 30 30 35 51 52 65 72 110 123 131 131 130 132 127 139 127 136 139 135 142 149 145 155 165 163
33 26 22 20 17 19 21 18 15 15 13 10 10 10 7 11 24 34 37 40 46 56 70 76 81 92 106 121 128 121 120 122 121 119 117 136 148 153 146 150 154 160 162
39 31 27 25 23 25 24 20 21 20 18 16 17 16 11 18 36 46 46 49 54 60 69 79 93 100 104 124 126 126 125 130 121 125 130 129 136 149 162 159 162 159 147
45 37 33 30 30 29 25 27 25 22 22 22 20 23 17 20 39 50 52 52 57 62 73 80 89 93 105 121 125 114 129 120 132 133 141 138 147 152 148 158 157 150 149
52 44 41 38 36 33 31 32 29 26 26 23 24 27 27 27 40 52 51 59 64 66 69 78 86 92 96 109 118 126 115 123 123 128 135 147 153 160 153 155 156 156 158
59 54 50 45 43 41 38 34 32 29 30 29 28 31 33 31 38 53 60 63 68 70 73 77 86 92 98 106 121 121 124 104 114 128 127 151 160 161 164 161 165 160 150
69 63 59 53 50 48 44 39 35 33 33 34 35 35 36 38 41 52 60 65 70 73 77 78 80 86 95 99 108 116 126 103 116 125 119 111 162 158 166 171 170 162 157
78 71 66 59 56 51 47 44 39 37 39 38 38 39 40 41 46 51 59 64 68 73 76 79 78 78 84 89 94 96 101 108 120 129 128 114 144 158 154 160 169 174 166
85 78 71 66 61 54 51 49 47 44 45 43 44 45 47 49 53 55 58 65 70 74 76 81 86 81 81 82 82 88 94 98 108 121 131 136 138 145 153 160 169 171 174
92 85 77 71 67 62 57 54 53 50 50 48 48 49 51 54 58 62 63 66 69 73 77 80 85 86 85 84 83 84 88 93 97 103 105 111 121 130 142 153 163 172 172
100 90 82 76 71 68 66 61 60 60 57 56 56 57 56 58 59 62 66 70 74 77 80 81 81 82 82 85 88 87 86 85 87 91 95 98 105 121 131 136 151 163 172
112 100 89 83 78 73 70 69 66 63 62 62 63 62 61 61 61 62 68 72 75 77 80 80 80 79 81 82 84 86 88 93 94 93 93 94 93 93 110 126 143 141 151
123 111 100 89 83 80 76 74 71 70 67 65 65 66 67 67 69 70 72 76 78 78 78 76 75 75 76 78 79 80 83 85 86 90 94 95 94 94 97 99 104 107 108
132 123 112 101 92 85 82 78 77 75 73 69 69 69 69 69 71 72 75 75 77 78 77 78 79 77 77 78 79 80 81 83 87 89 90 90 92 97 101 99 97 97 98
146 136 125 115 105 95 88 84 80 79 78 78 75 74 73 72 72 73 75 78 77 76 76 76 76 77 79 79 80 81 84 85 86 87 89 91 94 97 97 98 100 102 105
157 149 141 130 118 107 98 90 85 82 79 77 77 78 78 78 76 74 74 74 74 76 77 78 78 78 78 79 81 82 83 83 84 86 88 90 91 91 91 94 98 103 108
167 161 152 143 134 123 112 103 94 86 83 80 78 77 77 76 78 74 72 75 77 79 79 79 80 81 82 82 82 84 85 85 85 85 86 89 90 90 93 96 97 100 100
177 172 165 161 154 145 135 124 113 103 94 87 81 78 75 79 77 76 77 77 78 80 82 82 81 81 82 84 84 83 83 85 86 87 89 88 90 93 95 97 98 99 100
187 183 181 177 171 167 158 148 138 124 111 99 92 87 84 80 78 78 79 79 80 81 81 82 84 86 85 84 83 82 82 84 86 87 87 87 87 88 91 92 95 98 101
197 194 191 191 190 186 182 177 168 158 147 132 113 95 83 78 77 78 77 76 75 75 77 78 75 77 81 84 83 85 87 86 85 85 85 86 86 88 90 92 94 95 99
207 205 204 203 202 201 197 196 195 191 185 176 170 155 134 109 90 77 72 75 74 71 73 72 67 65 69 65 60 59 64 67 68 71 76 79 87 87 81 81 85 100 117
213 213 214 214 212 210 210 210 208 207 207 205 202 204 208 206 209 205 182 150 113 79 63 47 45 46 40 25 17 14 11 12 9 355 342 343 306 323 293 274 282 273 263
218 218 219 220 220 218 217 218 216 216 216 219 222 224 224 227 236 246 250 252 248 242 248 282 298 314 324 327 323 319 315 311 309 310 306 299 298 300 292 286 276 273 273
Height
1523 1520 1516 1512 1508 1503 1497 1490 1483 1476 1469 1462 1453 1444 1436 1426 1416 1407 1398 1390 1384 1378 1372 1365 1359 1356 1356 1359 1364 1368 1370 1372 1372 1379 1382 1386 1393 1400 1411 1426 1441 1455 1471
1524 1521 1517 1514 1509 1503 1497 1490 1483 1476 1470 1461 1453 1444 1434 1424 1413 1405 1396 1389 1383 1376 1367 1359 1354 1352 1353 1356 1360 1364 1367 1370 1372 1379 1382 1386 1393 1404 1417 1428 1443 1460 1474
1526 1523 1519 1515 1509 1504 1498 1491 1484 1477 1471 1462 1454 1444 1434 1424 1413 1403 1395 1388 1383 1376 1368 1359 1355 1353 1354 1357 1360 1364 1367 1368 1374 1377 1380 1385 1399 1412 1425 1434 1449 1465 1480
1527 1524 1520 1516 1511 1506 1500 1493 1486 1480 1472 1464 1456 1447 1438 1425 1415 1405 1396 1390 1384 1377 1368 1361 1358 1358 1358 1359 1364 1368 1370 1374 1376 1381 1389 1395 1406 1420 1431 1437 1454 1470 1482
1529 1526 1522 1518 1513 1508 1502 1496 1489 1483 1476 1468 1459 1450 1441 1429 1419 1407 1398 1390 1384 1377 1371 1365 1362 1363 1364 1365 1371 1369 1371 1375 1382 1386 1394 1404 1417 1426 1436 1448 1458 1472 1486
1530 1528 1524 1520 1516 1511 1505 1499 1493 1487 1480 1471 1464 1455 1446 1432 1425 1415 1405 1395 1390 1384 1377 1372 1371 1372 1373 1375 1376 1381 1381 1386 1390 1397 1406 1411 1420 1434 1448 1452 1461 1472 1484
1533 1530 1527 1523 1519 1514 1509 1503 1497 1491 1485 1476 1470 1462 1453 1440 1429 1421 1412 1404 1396 1393 1389 1385 1383 1383 1382 1385 1387 1391 1396 1400 1405 1407 1414 1424 1433 1444 1449 1459 1468 1476 1485
1535 1533 1529 1526 1522 1518 1514 1508 1502 1497 1491 1484 1477 1468 1459 1449 1438 1427 1420 1414 1407 1402 1399 1395 1391 1391 1392 1396 1399 1401 1404 1410 1416 1418 1426 1434 1441 1446 1454 1461 1468 1479 1494
1537 1535 1533 1529 1526 1522 1518 1513 1508 1503 1498 1492 1484 1477 1467 1459 1447 1436 1429 1422 1416 1412 1410 1408 1405 1404 1405 1405 1408 1411 1415 1418 1424 1431 1435 1441 1448 1456 1463 1467 1476 1483 1493
1540 1538 1536 1533 1530 1527 1523 1519 1514 1510 1505 1499 1492 1485 1478 1470 1462 1450 1440 1435 1427 1423 1421 1419 1418 1416 1416 1417 1419 1422 1425 1429 1433 1439 1443 1446 1451 1460 1468 1478 1483 1487 1496
1543 1541 1540 1537 1534 1531 1528 1524 1520 1517 1512 1506 1500 1494 1487 1481 1474 1465 1457 1449 1445 1440 1435 1432 1432 1432 1428 1428 1428 1430 1434 1438 1441 1444 1448 1453 1459 1467 1474 1481 1486 1496 1503
1546 1545 1543 1542 1539 1537 1534 1530 1527 1523 1517 1513 1508 1503 1497 1491 1486 1479 1473 1467 1462 1456 1451 1450 1448 1447 1444 1442 1440 1444 1445 1446 1448 1450 1454 1460 1467 1472 1478 1485 1492 1501 1510
1549 1548 1547 1546 1544 1542 1539 1536 1532 1530 1525 1521 1516 1512 1507 1502 1496 1491 1487 1482 1477 1473 1470 1468 1464 1460 1457 1454 1456 1458 1457 1457 1457 1459 1464 1468 1474 1479 1483 1488 1496 1506 1515
1551 1551 1551 1550 1549 1547 1545 1542 1539 1535 1533 1529 1526 1522 1518 1513 1508 1503 1500 1497 1493 1490 1487 1483 1481 1477 1475 1475 1471 1471 1471 1471 1470 1473 1477 1482 1487 1489 1488 1495 1501 1509 1518
1554 1555 1555 1554 1553 1552 1550 1548 1546 1543 1541 1539 1535 1532 1529 1524 1521 1519 1515 1510 1508 1505 1503 1498 1493 1492 1491 1490 1490 1490 1490 1488 1485 1488 1490 1492 1493 1498 1500 1503 1510 1514 1520
1557 1558 1558 1558 1557 1557 1556 1555 1553 1551 1550 1547 1544 1540 1538 1538 1535 1534 1531 1525 1522 1519 1513 1509 1507 1506 1505 1506 1506 1505 1504 1504 1505 1504 1503 1505 1507 1511 1515 1520 1522 1523 1527
1559 1560 1561 1561 1561 1561 1560 1559 1558 1558 1556 1555 1552 1550 1548 1546 1546 1544 1541 1538 1533 1529 1524 1525 1525 1525 1523 1522 1520 1519 1519 1519 1521 1520 1520 1521 1523 1525 1526 1528 1531 1534 1540
1560 1562 1563 1564 1564 1564 1564 1563 1563 1562 1561 1560 1560 1558 1556 1555 1554 1552 1550 1549 1544 1541 1539 1539 1539 1539 1541 1538 1537 1536 1535 1535 1533 1535 1535 1537 1539 1539 1540 1541 1544 1546 1548
1561 1563 1565 1566 1567 1567 1568 1567 1567 1567 1566 1565 1565 1565 1564 1563 1561 1560 1559 1554 1553 1553 1553 1553 1552 1552 1551 1551 1551 1550 1550 1551 1551 1552 1552 1551 1551 1551 1550 1552 1555 1557 1561
1562 1564 1566 1567 1569 1570 1571 1571 1571 1571 1570 1570 1570 1570 1569 1569 1569 1567 1565 1563 1562 1562 1563 1563 1562 1563 1563 1564 1565 1564 1564 1563 1564 1564 1565 1563 1563 1563 1563 1566 1568 1569 1571
1562 1564 1566 1568 1570 1571 1572 1573 1574 1574 1574 1574 1575 1574 1574 1573 1573 1573 1573 1572 1572 1573 1573 1573 1573 1572 1573 1573 1572 1572 1573 1574 1574 1574 1574 1574 1574 1575 1576 1577 1577 1578 1580
1563 1565 1567 1568 1570 1572 1573 1574 1575 1576 1577 1577 1578 1578 1578 1577 1577 1577 1577 1578 1578 1578 1577 1578 1578 1579 1579 1579 1579 1580 1580 1580 1580 1580 1580 1581 1581 1582 1583 1584 1584 1586 1588
1563 1565 1567 1569 1570 1572 1574 1575 1576 1577 1578 1578 1579 1580 1580 1580 1580 1580 1580 1580 1580 1580 1581 1581 1581 1582 1583 1584 1583 1584 1585 1585 1585 1585 1585 1586 1587 1587 1588 1589 1589 1589 1591
1562 1564 1567 1568 1570 1572 1573 1575 1576 1577 1578 1579 1580 1580 1581 1581 1582 1582 1582 1583 1583 1584 1584 1584 1584 1584 1585 1584 1584 1584 1586 1586 1585 1586 1587 1588 1591 1591 1589 1591 1591 1592 1593
1559 1562 1564 1567 1569 1571 1572 1574 1575 1576 1578 1579 1580 1581 1581 1581 1582 1582 1583 1583 1583 1584 1584 1585 1585 1585 1585 1585 1585 1585 1585 1585 1585 1587 1588 1587 1589 1588 1589 1590 1589 1590 1592
1556 1559 1561 1564 1566 1568 1570 1572 1573 1575 1576 1577 1578 1579 1580 1581 1581 1581 1582 1582 1583 1584 1584 1584 1583 1583 1583 1583 1583 1584 1585 1585 1585 1585 1585 1585 1585 1584 1585 1585 1586 1586 1587